Welcome to the New NWS' Forecast!
Most changes are behind the scenes, but click here for differences you might notice.

Regional Weather Roundup (RWR)

Issued by Northern Indiana (IWX)

                            
000
ASUS43 KIWX 200010
RWRIWX

KIWX WEATHER ROUNDUP
NATIONAL WEATHER SERVICE NORTHERN INDIANA
700 PM EST MON NOV 19 2018

NOTE: "FAIR" INDICATES FEW OR NO CLOUDS BELOW 12,000 FEET WITH NO
SIGNIFICANT WEATHER AND/OR OBSTRUCTIONS TO VISIBILITY. 

* THESE STATIONS ARE NOT UNDER NWS QUALITY CONTROL. THEY ALSO MAY NOT 
  REPORT WEATHER SUCH AS PRECIPITATION OR FOG. 

INZ001>027-200100-
NORTHERN INDIANA
  
CITY           SKY/WX    TMP DP  RH WIND       PRES   REMARKS
GARY*          CLOUDY    34  27  75 W5        30.06R WCI  30          
VALPARAISO     CLOUDY    33  26  75 W8        30.06R WCI  26          
6HR MIN TEMP:  33; 6HR MAX TEMP:  39;                                

MICHIGAN CITY* CLOUDY    34  27  75 SW6       30.05R WCI  29          
LAPORTE*       CLOUDY    33  28  81 W7        30.05R WCI  26          
6HR MIN TEMP:  31; 6HR MAX TEMP:  36;                                

KNOX*          MOCLDY    32  28  86 W8        30.05R WCI  25          
SOUTH BEND     CLOUDY    31  27  85 NW3       30.04R                  
6HR MIN TEMP:  31; 6HR MAX TEMP:  33;                                

ELKHART*       MOCLDY    32  27  80 W3        30.03R                  
GOSHEN         CLOUDY    32  28  85 W5        30.02R WCI  27          
6HR MIN TEMP:  32; 6HR MAX TEMP:  37;                                

MONTICELLO*    MOCLDY    33  31  92 W6        30.05S WCI  28          
6HR MIN TEMP:  33; 6HR MAX TEMP:  36;                                

LOGANSPORT*    FAIR      32  30  93 CALM      30.06S                  
ROCHESTER*     MOCLDY    36  30  80 CALM      30.05R                  
WARSAW*        CLOUDY    32  30  93 W7        30.04R WCI  26          
KENDALLVILLE*  CLOUDY    33  28  80 W8        30.02R WCI  26          
AUBURN*        FAIR      32  30  93 W3        30.02R                  
FORT WAYNE     MOCLDY    35  31  85 W8        30.03R WCI  29          
6HR MIN TEMP:  35; 6HR MAX TEMP:  40;                                

HUNTINGTON*    FAIR      33  30  89 W5        30.04R WCI  29          
6HR MIN TEMP:  33; 6HR MAX TEMP:  38;                                

PERU/GRISSOM   CLOUDY    32  32  99 W5        30.03R WCI  28          
6HR MIN TEMP:  32; 6HR MAX TEMP:  39;                                


$$
INZ028>050-200100-
CENTRAL INDIANA
  
CITY           SKY/WX    TMP DP  RH WIND       PRES   REMARKS
LAFAYETTE      CLOUDY    35  31  85 W8        30.06S WCI  29          
6HR MIN TEMP:  36; 6HR MAX TEMP:  39;                                

KOKOMO*        FAIR      34  31  88 W7        30.06R WCI  28          
6HR MIN TEMP:  33; 6HR MAX TEMP:  40;                                

MUNCIE*        CLOUDY    39  34  82 NW7       30.03R                  
6HR MIN TEMP:  38; 6HR MAX TEMP:  41;                                

INDIANAPOLIS   CLOUDY    38  34  85 W6        30.05R                  
6HR MIN TEMP:  37; 6HR MAX TEMP:  39;                                


$$
MIZ043>046-050>051-056>058-064>065-071>073-077>080-200100-
SOUTHWEST LOWER MICHIGAN
  
CITY           SKY/WX    TMP DP  RH WIND       PRES   REMARKS
BATTLE CREEK   MOCLDY    30  25  81 SW6       30.01R WCI  24          
6HR MIN TEMP:  30; 6HR MAX TEMP:  35;                                

BENTON HARBOR  CLOUDY    36  28  73 W8        30.04R                  
6HR MIN TEMP:  33; 6HR MAX TEMP:  36;                                

COLDWATER*     FAIR      34  29  82 W5        30.00S WCI  30          
6HR MIN TEMP:  34; 6HR MAX TEMP:  37;                                

HILLSDALE*     FAIR      32  28  86 W3        29.98S                  
HOLLAND        CLOUDY    35  27  72 NW8       30.02R WCI  29          
6HR MIN TEMP:  35; 6HR MAX TEMP:  39;                                

GRAND RAPIDS   FLURRIES  36  28  73 W10       29.99R                  
6HR MIN TEMP:  36; 6HR MAX TEMP:  38; 6HR PCP: TRACE;                

KALAMAZOO      CLOUDY    32  26  78 W6        30.02R WCI  26          
6HR MIN TEMP:  31; 6HR MAX TEMP:  36;                                

STURGIS*       CLOUDY    34  28  80 W3        30.00S                  
6HR MIN TEMP:  34; 6HR MAX TEMP:  37;                                

THREE RIVERS*  CLOUDY    33  28  81 CALM      30.02R                  
6HR MIN TEMP:  32; 6HR MAX TEMP:  38;                                


$$
OHZ001>008-015>018-024>025-200100-
NORTHWEST OHIO
  
CITY           SKY/WX    TMP DP  RH WIND       PRES   REMARKS
WAUSEON*       CLOUDY    34  34 100 CALM      30.00S                  
DEFIANCE       FAIR      34  30  85 CALM      30.01S                  
6HR MIN TEMP:  33; 6HR MAX TEMP:  38;                                

FINDLAY        CLOUDY    37  35  92 W3        30.00R FOG              
6HR MIN TEMP:  37; 6HR MAX TEMP:  38;                                

OTTAWA*        FAIR      34  32  93 W3        30.03R                  
TOLEDO EXPRESS MOCLDY    37  31  78 W3        30.01S                  
6HR MIN TEMP:  36; 6HR MAX TEMP:  39;                                

LIMA           CLOUDY    36  33  89 W6        30.00R                  
6HR MIN TEMP:  36; 6HR MAX TEMP:  37;                                


$$
AND FOR LAKE MICHIGAN COASTAL AND OPEN LAKE BUOY OBSERVATIONS
  
STATION/POSITION TEMP    WIND        PRES    VSBY  WAVE
                 AIR SEA DIR/SP/G                  HT/PER
                 (F)     (DEG/KT/KT) (MB)    (MI)  (FT/S)
CALUMET HARBOR    33     240/  5/  8 1017.1R
MICHIGAN CITY     36     250/ 16/ 18   N/A
BURNS HARBOR      35     240/  5/  8 1018.3R
SAINT JOSEPH      37     280/ 10/ 15 1017.3
SOUTH LAKE BUOY   34 44  330/ 12/ 14 1018.0R         2/ 3

$$
&&